Change the Weather History Date:

Monday, April 8, 2013

  Actual Average (KBNA) Record (KBNA)
Temperature  
Mean Temperature 64 °F 57 °F  
Max Temperature 78 °F 68 °F 87 °F (1978)
Min Temperature 51 °F 45 °F 23 °F (2007)
Degree Days  
Heating Degree Days 0    
Month to date heating degree days  
Since 1 July heating degree days  
Cooling Degree Days 0    
Month to date cooling degree days  
Year to date cooling degree days  
Growing Degree Days 14 (Base 50)    
Moisture  
Dew Point 59 °F    
Average Humidity 77    
Maximum Humidity 100    
Minimum Humidity 47    
Precipitation  
Precipitation 0.00 in 0.12 in 3.45 in (1872)
Month to date precipitation 0.95  
Year to date precipitation 12.75  
Snow  
Snow 0.00 in 0.00 in 0.00 in (2002)
Month to date snowfall 0.1  
Since 1 July snowfall 6.4  
Snow Depth -    
Sea Level Pressure  
Sea Level Pressure 29.99 in    
Wind  
Wind Speed 6 mph (South)    
Max Wind Speed 20 mph    
Max Gust Speed -    
Visibility 10 miles    
Events      
T = Trace of Precipitation, MM = Missing Value Source: NWS Daily Summary

Daily Weather History Graph

Daily Weather History Graph

Search for Another Location

Airport or City:

Trip Planner

Search our weather history database for the weather conditions in past years. The results will help you decide how hot, cold, wet, or windy it might be!

Date:

Astronomy

Apr. 08, 2013 Rise Set
Actual Time 6:25 AM CDT 7:16 PM CDT
Civil Twilight 5:59 AM CDT 7:42 PM CDT
Nautical Twilight 5:28 AM CDT 8:13 PM CDT
Astronomical Twilight 4:57 AM CDT 8:44 PM CDT
Moon 5:11 AM CDT (4/8) 5:52 PM CDT (4/8)
Length of Visible Light 13h 43m
Length of Day
12h 51m
Waning Crescent, 3% of the Moon is Illuminated
Apr 8
Waning Crescent
Apr 10
New
Apr 18
First Quarter
Apr 25
Full
May 2
Last Quarter

Hourly Weather History & Observations

Time (CDT) Temp. Dew Point Humidity Pressure Visibility Wind Dir Wind Speed Gust Speed Precip Events Conditions
12:35 AM 51.8 °F 51.8 °F 100% 29.98 in 10.0 mi SSE 3.5 mph - N/A   Clear
12:55 AM 51.8 °F 51.8 °F 100% 29.98 in 10.0 mi Calm Calm - N/A   Clear
1:15 AM - - N/A% 29.98 in 10.0 mi Calm Calm - N/A   Clear
1:35 AM - - N/A% 29.97 in 10.0 mi Calm Calm - N/A   Clear
1:55 AM - - N/A% 29.97 in 10.0 mi SSE 3.5 mph - N/A   Clear
2:15 AM 53.6 °F 53.6 °F 100% 29.96 in 10.0 mi Calm Calm - N/A   Clear
2:35 AM 53.6 °F 53.6 °F 100% 29.97 in 10.0 mi Calm Calm - N/A   Clear
2:55 AM - - N/A% 29.97 in 10.0 mi Calm Calm - N/A   Partly Cloudy
3:15 AM - - N/A% 29.97 in 10.0 mi Calm Calm - N/A   Partly Cloudy
3:35 AM - - N/A% 29.97 in 10.0 mi SSE 3.5 mph - N/A   Clear
3:55 AM - - N/A% 29.96 in 10.0 mi SSE 4.6 mph - N/A   Clear
4:15 AM 53.6 °F 53.6 °F 100% 29.97 in 10.0 mi SSE 4.6 mph - N/A   Clear
4:35 AM 53.6 °F 53.6 °F 100% 29.97 in 10.0 mi Calm Calm - N/A   Clear
4:55 AM - - N/A% 29.98 in 10.0 mi South 3.5 mph - N/A   Clear
5:15 AM 55.4 °F 55.4 °F 100% 29.98 in 10.0 mi South 5.8 mph - N/A   Clear
5:35 AM 57.2 °F 57.2 °F 100% 29.98 in 10.0 mi South 5.8 mph - N/A   Clear
5:55 AM 57.2 °F 57.2 °F 100% 29.98 in 10.0 mi South 5.8 mph - N/A   Clear
6:15 AM 57.2 °F 57.2 °F 100% 29.98 in 10.0 mi South 5.8 mph - N/A   Clear
6:35 AM 57.2 °F 57.2 °F 100% 30.00 in 10.0 mi South 6.9 mph - N/A   Clear
6:55 AM 57.2 °F 57.2 °F 100% 30.01 in 10.0 mi South 5.8 mph - N/A   Clear
7:15 AM 57.2 °F 57.2 °F 100% 30.02 in 10.0 mi South 6.9 mph - N/A   Clear
7:35 AM 60.8 °F 60.8 °F 100% 30.02 in 10.0 mi South 8.1 mph - N/A   Clear
7:55 AM 60.8 °F 60.8 °F 100% 30.03 in 10.0 mi SSW 9.2 mph - N/A   Mostly Cloudy
8:15 AM 60.8 °F 60.8 °F 100% 30.03 in 10.0 mi SSW 12.7 mph - N/A   Overcast
8:35 AM 62.6 °F 62.6 °F 100% 30.03 in 10.0 mi SSW 12.7 mph - N/A   Overcast
8:55 AM 62.6 °F 62.6 °F 100% 30.03 in 10.0 mi SSW 13.8 mph - N/A   Overcast
9:15 AM 64.4 °F 64.4 °F 100% 30.03 in 10.0 mi SSW 10.4 mph - N/A   Mostly Cloudy
9:35 AM 66.2 °F 66.2 °F 100% 30.03 in 10.0 mi SSW 11.5 mph - N/A   Mostly Cloudy
9:55 AM 64.4 °F 64.4 °F 100% 30.04 in 10.0 mi SSW 15.0 mph - N/A   Overcast
10:15 AM 66.2 °F 66.2 °F 100% 30.04 in 10.0 mi SW 10.4 mph - N/A   Overcast
10:35 AM 69.8 °F 64.4 °F 83% 30.04 in 10.0 mi SSW 9.2 mph - N/A   Mostly Cloudy
10:55 AM 69.8 °F 62.6 °F 78% 30.04 in 10.0 mi SW 10.4 mph - N/A   Scattered Clouds
11:15 AM 69.8 °F 62.6 °F 78% 30.04 in 10.0 mi SW 15.0 mph - N/A   Mostly Cloudy
11:35 AM 69.8 °F 62.6 °F 78% 30.04 in 10.0 mi SSW 11.5 mph - N/A   Mostly Cloudy
11:55 AM 71.6 °F 62.6 °F 73% 30.03 in 10.0 mi SSW 13.8 mph - N/A   Overcast
12:15 PM 71.6 °F 60.8 °F 69% 30.03 in 10.0 mi SSW 15.0 mph - N/A   Overcast
12:35 PM 71.6 °F 60.8 °F 69% 30.02 in 10.0 mi SSW 12.7 mph - N/A   Overcast
12:55 PM 71.6 °F 60.8 °F 69% 30.02 in 10.0 mi SSW 15.0 mph - N/A   Overcast
1:15 PM 73.4 °F 60.8 °F 65% 30.01 in 10.0 mi SW 13.8 mph - N/A   Overcast
1:35 PM 73.4 °F 59.0 °F 61% 30.00 in 10.0 mi SSW 11.5 mph - N/A   Mostly Cloudy
1:55 PM 73.4 °F 60.8 °F 65% 30.00 in 10.0 mi SSW 10.4 mph - N/A   Mostly Cloudy
2:15 PM 73.4 °F 57.2 °F 57% 29.99 in 10.0 mi South 15.0 mph - N/A   Mostly Cloudy
2:35 PM 75.2 °F 59.0 °F 57% 29.98 in 10.0 mi SSW 15.0 mph - N/A   Scattered Clouds
2:55 PM 75.2 °F 59.0 °F 57% 29.97 in 10.0 mi South 15.0 mph - N/A   Partly Cloudy
3:15 PM 75.2 °F 60.8 °F 61% 29.97 in 10.0 mi SSW 12.7 mph - N/A   Scattered Clouds
3:35 PM 77.0 °F 57.2 °F 50% 29.95 in 10.0 mi South 13.8 mph - N/A   Mostly Cloudy
3:55 PM 78.8 °F 57.2 °F 47% 29.95 in 10.0 mi SSW 16.1 mph - N/A   Scattered Clouds
4:15 PM 77.0 °F 57.2 °F 50% 29.94 in 10.0 mi SSW 15.0 mph - N/A   Clear
4:35 PM 77.0 °F 57.2 °F 50% 29.93 in 10.0 mi SSW 19.6 mph - N/A   Clear
4:55 PM 75.2 °F 57.2 °F 53% 29.93 in 10.0 mi South 11.5 mph - N/A   Partly Cloudy
5:15 PM 78.8 °F 57.2 °F 47% 29.93 in 10.0 mi South 19.6 mph - N/A   Clear
5:35 PM 77.0 °F 57.2 °F 50% 29.93 in 10.0 mi SSW 13.8 mph - N/A   Clear
5:55 PM 77.0 °F 57.2 °F 50% 29.93 in 10.0 mi South 12.7 mph - N/A   Clear
6:15 PM 77.0 °F 55.4 °F 47% 29.93 in 10.0 mi SSW 10.4 mph - N/A   Clear
6:35 PM 75.2 °F 57.2 °F 53% 29.93 in 10.0 mi SSW 12.7 mph - N/A   Clear
7:35 PM 73.4 °F 57.2 °F 57% 29.94 in 10.0 mi South 8.1 mph - N/A   Scattered Clouds
7:55 PM 73.4 °F 57.2 °F 57% 29.95 in 10.0 mi SSE 4.6 mph - N/A   Partly Cloudy
8:15 PM 71.6 °F 59.0 °F 64% 29.95 in 10.0 mi SSE 4.6 mph - N/A   Partly Cloudy
8:35 PM 71.6 °F 59.0 °F 64% 29.96 in 10.0 mi SSE 5.8 mph - N/A   Partly Cloudy
8:55 PM 71.6 °F 60.8 °F 69% 29.97 in 10.0 mi SSE 6.9 mph - N/A   Clear
9:15 PM 69.8 °F 60.8 °F 73% 29.97 in 10.0 mi SSE 5.8 mph - N/A   Clear
9:35 PM 69.8 °F 60.8 °F 73% 29.97 in 10.0 mi SSE 5.8 mph - N/A   Clear
9:55 PM 69.8 °F 60.8 °F 73% 29.98 in 10.0 mi SSE 5.8 mph - N/A   Clear
10:15 PM 69.8 °F 60.8 °F 73% 29.98 in 10.0 mi South 5.8 mph - N/A   Clear
10:35 PM 68.0 °F 60.8 °F 78% 29.98 in 10.0 mi SSE 4.6 mph - N/A   Clear
10:55 PM 68.0 °F 60.8 °F 78% 29.99 in 10.0 mi South 4.6 mph - N/A   Clear
11:15 PM 68.0 °F 60.8 °F 78% 29.99 in 10.0 mi South 4.6 mph - N/A   Clear
11:35 PM 68.0 °F 60.8 °F 78% 29.99 in 10.0 mi South 6.9 mph - N/A   Clear
11:55 PM 68.0 °F 62.6 °F 83% 29.99 in 10.0 mi South 6.9 mph - N/A   Clear